Location: *
(51.0333°S, 178.4667°E)
Time: 13:53:08
(UTC+00:00)

Cosmos 1733 Rocket - Pass Details

Date: 15 November 2019
Orbit: 603 x 629 km, 82.5° (Epoch: 14 December)

Event Time Altitude Azimuth Distance (km) Brightness Sun altitude
Exits shadow 09:52:39 16° 341° (NNW) 1,620 4.8 -15.8°
Maximum altitude 09:56:07 72° 259° (WSW) 670 3.3 -16.1°
Drops below altitude 10° 10:00:38 10° 173° (S) 2,037 6.6 -16.4°
Sets 10:02:55 0° 171° (S) 2,956 7.5 -16.6°
